Temperature
19 19 19 19 19 19 19 19 19 19 18 19 19 19 19 19 19 19 19 19 19 19 19 19 19 19 19 19 19 19 19 19 19 19 18 18 18 18 18 18 18 17 18
19 19 19 19 19 19 19 19 19 19 19 19 19 19 18 18 19 19 19 19 19 19 19 19 19 19 19 19 19 19 19 19 18 18 18 18 18 18 18 18 17 17 18
19 19 19 19 19 19 19 19 19 19 19 18 18 18 18 18 18 18 18 19 19 18 18 18 19 19 19 19 19 19 19 18 18 18 18 17 18 18 18 18 18 18 18
19 19 18 19 19 19 19 19 19 19 18 18 18 18 18 18 18 18 18 19 18 18 18 18 19 18 18 18 18 18 18 18 18 18 18 17 17 18 18 18 18 18 18
19 19 18 19 18 18 19 19 19 19 18 18 18 18 18 18 18 18 18 18 18 18 18 18 18 18 18 18 18 18 18 18 18 18 17 17 17 18 18 18 18 18 18
19 19 18 19 18 18 18 18 18 19 18 18 18 18 18 18 18 18 18 18 18 18 18 18 18 18 18 18 18 18 18 18 18 17 17 17 17 18 18 18 18 18 18
19 19 18 18 18 18 18 18 18 18 18 18 18 18 18 18 18 18 18 18 18 18 18 18 18 18 18 18 18 18 18 18 18 17 17 17 17 18 18 18 17 17 17
19 19 18 18 18 18 18 18 18 18 18 18 18 18 18 18 18 18 18 18 18 18 18 18 18 18 18 18 18 18 18 18 17 17 17 17 18 18 18 17 17 17 17
19 19 19 18 18 18 18 18 19 19 19 18 18 18 18 18 18 18 18 18 18 18 18 18 18 18 18 18 18 18 18 18 18 18 17 17 18 18 18 17 17 17 17
19 19 18 18 18 18 18 18 18 18 18 18 18 18 18 18 18 18 18 18 18 18 18 18 18 18 18 18 18 18 18 18 18 18 17 17 18 18 18 17 17 17 17
19 19 19 19 18 18 18 18 18 18 18 18 18 18 18 18 18 18 17 18 18 18 18 18 18 18 18 18 18 18 18 18 18 18 17 18 18 18 18 17 17 17 17
19 19 18 19 19 18 18 18 18 18 18 18 18 18 18 18 18 17 18 18 18 18 18 18 18 18 18 17 18 18 18 18 18 18 17 18 18 18 18 17 17 17 17
19 19 19 18 18 18 18 18 18 18 18 18 18 18 18 17 18 17 18 17 18 17 17 17 17 17 17 17 17 17 17 18 18 18 18 18 18 18 18 17 17 17 17
19 19 19 18 18 18 18 18 18 18 18 18 18 18 18 18 18 18 18 18 17 17 17 17 17 17 17 17 17 17 17 18 18 18 18 18 18 18 18 17 17 17 17
19 19 19 19 19 19 18 18 18 18 18 18 18 18 18 18 18 18 18 18 18 18 17 17 17 17 17 17 17 17 17 18 18 18 18 18 18 18 18 18 17 17 17
19 19 19 19 19 19 19 18 18 18 18 18 18 18 18 18 18 18 18 18 17 17 17 17 17 17 17 17 18 18 18 18 18 18 18 18 18 18 18 18 18 17 17
19 19 19 19 19 19 18 18 18 18 18 18 18 18 18 18 18 18 18 18 18 17 17 17 17 17 18 18 18 18 18 18 18 18 18 18 18 18 18 18 18 18 18
20 19 19 19 19 19 19 18 18 18 18 18 18 18 18 18 18 18 18 18 18 18 17 18 18 18 18 18 18 18 18 18 18 18 18 18 18 18 18 18 18 18 18
20 20 19 19 19 19 19 19 18 18 18 18 18 18 18 18 18 18 18 18 18 18 18 18 18 18 18 18 18 18 18 18 18 18 18 18 18 18 18 18 18 18 18
20 20 20 19 19 19 19 19 18 18 18 18 18 18 18 18 18 18 18 18 18 18 18 18 18 18 18 18 18 18 18 18 18 18 18 18 18 18 18 18 18 18 18
20 20 20 20 20 19 19 19 19 18 18 18 18 18 18 18 18 18 18 18 18 18 18 18 18 18 18 18 18 18 18 18 18 18 18 18 18 18 18 18 18 18 18
21 20 20 20 20 20 19 19 19 19 18 18 18 18 18 18 18 18 18 18 18 18 18 18 18 18 18 18 18 18 19 19 19 19 19 18 18 18 18 18 18 18 18
21 21 21 20 20 20 20 19 19 19 19 18 18 18 18 18 18 18 18 18 18 18 18 18 18 18 18 18 18 18 19 20 19 19 19 18 18 18 18 18 18 18 18
21 21 21 21 20 20 20 19 19 19 19 19 19 18 18 18 18 18 18 18 18 18 18 18 18 18 18 18 18 18 18 19 19 19 19 19 18 18 18 18 18 18 18
21 21 21 21 20 20 20 20 20 19 19 19 19 18 18 18 18 18 18 18 18 18 18 18 18 18 18 18 18 18 18 18 18 19 19 19 19 18 18 18 18 18 18
21 21 21 21 21 20 20 20 20 19 19 19 19 19 18 18 18 18 18 18 18 18 18 18 18 18 18 18 18 18 18 18 18 18 19 18 18 18 18 18 18 18 18
Wind_Speed
3 5 9 9 10 11 12 13 15 16 16 18 18 19 19 19 20 20 20 20 20 20 20 20 19 18 17 17 16 16 15 15 15 15 15 15 15 15 15 14 13 14 15
4 6 10 10 11 12 12 13 15 16 17 18 19 19 19 19 19 19 20 20 19 19 19 19 18 18 17 17 16 16 15 15 15 15 15 15 15 14 13 11 9 15 15
5 8 11 11 11 11 12 13 15 16 17 18 19 19 19 19 19 20 20 19 19 19 19 18 18 17 17 16 16 16 15 14 14 14 13 13 14 13 12 12 14 15 14
6 9 11 12 11 11 12 13 14 16 18 18 19 19 19 19 19 19 19 19 18 18 18 18 17 17 17 16 16 15 15 14 13 11 10 11 13 14 12 13 14 14 13
7 9 12 12 11 11 12 13 14 16 17 18 18 19 19 19 19 19 19 19 18 18 17 17 17 17 16 15 15 15 14 13 11 8 9 10 11 13 12 12 13 13 12
8 9 13 12 10 10 12 13 14 16 17 17 17 18 19 19 20 19 19 19 18 17 17 16 16 16 16 15 15 14 13 12 10 9 9 8 11 12 12 12 12 12 11
8 9 13 13 11 10 12 12 14 15 17 16 16 17 18 19 19 19 18 18 17 17 16 15 15 15 14 14 14 13 11 8 6 8 8 8 10 12 11 11 11 11 11
8 9 12 12 11 11 11 12 13 14 15 15 16 17 18 18 18 18 18 17 17 16 15 15 15 14 14 13 12 11 9 6 7 7 7 9 11 10 10 10 11 10 10
8 8 9 11 11 11 11 12 13 14 14 14 15 16 18 18 17 18 17 16 16 16 15 14 14 13 13 12 11 10 8 3 5 6 7 8 11 9 9 9 10 9 9
7 7 7 9 10 10 11 11 11 12 12 13 14 16 17 18 17 17 17 16 16 15 14 13 13 12 11 10 10 9 8 6 5 6 6 9 10 9 9 9 9 8 8
7 6 6 8 8 9 9 11 11 12 11 12 13 15 14 13 14 14 15 15 15 15 14 13 12 12 11 10 9 8 7 5 5 4 5 11 9 9 9 9 9 9 8
7 6 6 6 7 8 8 9 8 9 10 9 10 11 10 10 9 11 14 14 14 13 13 12 12 12 10 9 9 8 5 4 4 4 6 10 8 8 8 9 10 9 9
7 6 6 5 6 6 6 6 6 6 7 8 9 9 8 8 8 8 9 10 11 12 11 12 11 8 7 6 5 5 4 3 3 3 7 9 8 8 8 9 10 10 10
7 6 5 5 5 5 5 5 5 5 5 6 8 8 7 5 5 6 5 7 7 8 7 7 5 6 5 5 4 3 3 3 3 3 6 9 8 8 9 9 10 11 11
7 6 6 5 5 5 5 4 5 5 5 6 6 7 7 6 5 6 5 5 6 7 7 6 5 5 4 5 4 4 3 3 3 3 5 9 9 10 10 10 10 11 12
7 6 6 6 6 5 5 4 4 5 6 6 6 7 6 6 5 5 5 5 5 6 6 5 5 4 4 3 3 3 4 4 4 4 4 8 11 11 11 11 11 12 12
7 7 7 7 6 6 5 5 4 5 7 5 6 6 6 6 6 6 5 5 5 6 6 5 5 4 4 4 4 3 4 4 4 4 5 5 7 11 12 12 12 12 13
8 7 7 6 7 7 5 4 4 5 6 5 6 6 6 6 7 6 5 5 5 6 5 5 5 4 3 3 3 3 3 3 4 5 5 6 5 6 10 13 12 12 13
9 8 8 7 7 7 6 5 4 4 4 5 5 5 6 7 7 6 5 5 6 5 5 5 4 4 4 3 3 3 3 4 4 5 5 6 6 6 6 10 13 13 13
9 9 9 8 8 7 7 5 4 5 5 5 5 6 6 7 8 7 6 6 6 5 5 4 4 4 3 3 4 3 4 4 4 4 5 5 6 6 6 6 8 11 14
10 10 9 9 9 8 7 7 6 6 6 5 5 7 7 7 8 7 6 6 6 5 5 6 5 5 5 4 3 3 4 5 4 4 4 4 4 5 5 6 7 6 8
12 11 11 10 10 10 8 6 5 5 5 5 5 6 7 8 8 8 6 6 6 5 6 6 6 4 4 4 4 3 3 4 5 4 4 4 4 5 5 6 6 6 7
12 12 11 11 11 10 9 7 6 6 5 6 6 6 7 8 8 7 7 6 6 6 6 6 6 6 5 5 4 3 3 2 1 3 4 4 4 4 5 5 6 6 7
13 12 12 11 11 10 10 9 10 8 8 7 6 6 7 8 8 8 8 7 7 6 6 7 7 6 6 5 5 4 4 3 3 2 3 3 4 4 5 5 5 6 7
12 12 12 11 11 11 10 10 10 9 7 6 6 6 6 7 8 8 8 7 7 6 6 6 5 6 6 6 5 5 5 4 6 5 4 3 3 4 4 4 4 5 5
11 11 11 11 11 11 12 11 10 10 8 8 8 7 7 7 7 8 9 8 8 7 7 7 6 7 6 6 6 5 5 5 5 5 5 5 4 3 3 3 5 4 5
Wind_Direction
69 92 109 116 117 122 128 133 137 139 138 138 137 134 133 133 132 131 131 130 130 131 131 132 132 132 131 128 127 125 123 122 122 121 120 119 119 121 122 126 131 116 117
81 107 116 113 113 117 124 131 136 138 138 139 137 136 137 136 135 134 132 130 130 131 132 133 133 133 130 127 126 125 125 125 125 125 126 123 122 123 124 123 108 115 123
80 105 117 110 111 115 120 126 131 135 137 140 139 138 138 138 139 136 134 131 130 130 131 132 134 132 130 128 126 126 126 126 127 134 144 131 125 126 125 119 113 123 127
85 96 105 108 111 115 117 121 128 133 136 139 141 141 139 141 142 139 135 133 133 133 132 131 133 133 131 129 128 128 128 128 133 155 145 126 128 128 131 128 128 130 130
89 95 101 107 111 115 117 120 127 133 136 138 140 141 141 143 141 138 137 135 136 135 133 132 132 133 132 131 131 130 130 131 146 165 116 118 120 129 134 134 135 135 134
93 99 103 105 107 113 117 120 127 135 137 138 139 140 140 140 139 138 136 135 135 134 133 131 129 128 130 131 131 131 131 140 168 127 118 121 123 133 137 138 138 139 138
98 101 103 104 103 109 115 118 123 130 134 137 139 141 140 139 140 138 137 136 134 133 134 133 130 130 130 131 131 132 134 152 144 123 126 124 119 135 143 142 143 144 145
99 103 106 109 103 103 112 116 120 125 132 137 139 141 141 142 140 140 139 139 137 136 135 134 130 129 129 129 129 132 138 169 139 131 133 125 125 140 146 149 150 152 153
95 99 104 112 116 113 110 112 118 125 133 136 138 141 142 141 142 141 142 143 142 140 138 136 133 131 131 132 134 139 147 182 148 133 137 127 133 146 153 157 157 158 161
93 96 105 109 113 118 119 118 117 121 130 134 137 141 143 145 144 146 146 144 145 143 141 140 136 133 133 137 139 143 157 193 155 146 139 129 143 158 165 165 166 170 174
109 104 104 109 115 118 118 122 126 128 130 139 140 142 146 146 145 150 144 146 147 146 145 143 142 142 145 147 148 154 178 182 148 140 127 126 154 170 177 178 177 178 183
120 114 108 112 119 124 124 125 129 131 134 136 135 141 143 140 144 144 142 151 150 150 151 151 152 159 171 155 155 177 180 160 161 152 131 139 165 179 185 191 191 190 190
127 122 121 117 120 127 129 129 126 126 131 133 134 138 138 144 148 146 149 155 157 159 157 155 166 169 163 150 166 177 163 179 176 168 143 154 179 190 194 196 197 197 196
132 131 125 128 129 127 126 127 135 134 137 138 138 146 144 146 149 140 145 150 155 153 152 160 159 154 154 160 181 180 180 196 191 178 149 165 189 201 204 205 205 204 202
146 143 137 132 131 132 133 142 140 140 140 138 138 143 150 151 148 143 145 150 156 150 156 161 155 154 165 179 190 185 194 198 207 206 170 176 194 207 211 210 210 212 210
164 159 153 153 148 147 147 147 143 145 146 144 146 147 153 150 145 149 152 153 154 155 154 159 160 166 181 182 197 198 212 216 204 219 208 188 196 206 211 213 215 217 216
174 172 166 166 160 162 159 154 146 147 149 152 150 152 157 158 153 159 155 160 156 155 158 169 170 178 187 190 203 217 224 231 222 224 225 217 201 201 208 214 216 217 218
178 176 178 176 168 172 170 163 154 151 148 157 162 161 165 165 167 171 166 167 163 170 175 174 185 185 190 200 209 230 233 231 230 229 227 220 220 213 204 208 216 219 221
185 181 181 183 178 176 170 169 164 159 164 169 172 173 169 176 179 183 176 169 178 181 185 191 180 194 195 203 216 225 238 241 233 232 231 228 222 226 221 195 207 218 223
188 188 186 185 182 180 177 175 178 174 177 181 182 180 180 186 186 189 183 182 192 188 191 195 186 201 210 215 235 238 244 240 233 231 234 224 220 225 230 221 212 213 216
190 191 192 191 183 185 185 186 184 182 183 184 187 184 190 196 190 195 194 179 195 196 201 198 198 198 211 210 224 240 238 227 221 218 229 234 221 223 227 227 234 234 215
192 194 193 193 189 190 187 190 192 187 190 188 189 183 197 198 195 192 195 194 194 195 202 206 209 219 219 210 228 239 236 214 205 212 210 217 231 229 228 225 229 234 249
196 197 197 195 192 193 187 188 186 184 196 189 192 191 196 197 199 203 198 203 199 206 201 208 214 221 225 222 224 238 248 244 235 191 213 219 225 238 243 239 235 234 237
197 196 197 194 194 193 192 199 199 198 200 196 195 189 190 196 201 202 204 204 209 213 204 214 213 222 228 230 221 234 262 291 265 239 221 219 225 231 244 251 248 235 238
193 191 191 191 194 195 199 201 205 208 205 199 196 188 197 198 203 207 207 208 211 217 215 222 217 228 229 237 238 232 234 240 249 262 263 256 249 242 240 247 250 247 243
190 189 187 187 192 196 199 203 204 206 206 203 200 198 203 204 205 208 210 211 215 221 217 221 223 225 237 242 248 244 242 244 246 250 261 264 265 264 260 258 257 253 245
Height
1494 1492 1490 1489 1490 1489 1490 1492 1495 1497 1500 1503 1506 1508 1511 1514 1516 1519 1522 1524 1527 1530 1532 1535 1537 1539 1542 1544 1546 1548 1549 1551 1552 1554 1555 1556 1558 1559 1560 1561 1563 1564 1564
1495 1493 1492 1492 1492 1492 1492 1494 1496 1499 1501 1505 1507 1510 1513 1516 1518 1521 1524 1526 1529 1532 1534 1537 1539 1541 1543 1546 1548 1550 1551 1553 1554 1555 1557 1558 1559 1560 1562 1563 1564 1565 1566
1496 1494 1494 1494 1494 1494 1495 1496 1498 1500 1503 1506 1509 1512 1515 1517 1520 1523 1526 1529 1531 1534 1536 1538 1541 1543 1545 1547 1549 1551 1552 1554 1556 1557 1559 1561 1561 1562 1563 1564 1565 1566 1567
1498 1497 1497 1496 1497 1497 1498 1498 1500 1502 1504 1507 1510 1514 1516 1519 1522 1525 1528 1530 1533 1535 1538 1540 1542 1544 1546 1549 1550 1552 1554 1556 1558 1559 1563 1564 1564 1564 1565 1566 1567 1568 1569
1501 1500 1499 1499 1499 1500 1500 1501 1502 1504 1506 1509 1512 1515 1518 1521 1524 1527 1529 1532 1535 1538 1540 1542 1544 1545 1548 1550 1552 1554 1556 1557 1559 1562 1564 1565 1565 1565 1566 1567 1568 1569 1570
1503 1503 1502 1501 1501 1502 1502 1503 1504 1506 1508 1511 1515 1518 1521 1523 1526 1529 1531 1534 1537 1539 1541 1544 1546 1547 1549 1551 1553 1556 1557 1559 1561 1565 1565 1566 1567 1566 1567 1568 1569 1570 1571
1505 1505 1505 1504 1504 1504 1505 1505 1507 1509 1511 1514 1517 1520 1523 1526 1528 1531 1534 1536 1539 1541 1544 1546 1548 1550 1552 1553 1555 1557 1559 1560 1564 1565 1566 1567 1567 1568 1569 1569 1570 1571 1572
1507 1507 1507 1506 1506 1507 1507 1508 1509 1511 1513 1516 1519 1522 1525 1527 1530 1533 1535 1538 1541 1543 1545 1547 1549 1552 1554 1555 1557 1559 1560 1562 1565 1567 1567 1568 1568 1568 1570 1570 1571 1572 1573
1509 1509 1510 1510 1509 1509 1510 1511 1513 1514 1516 1519 1521 1524 1526 1529 1532 1535 1537 1540 1543 1545 1547 1549 1551 1553 1555 1557 1559 1560 1562 1563 1566 1567 1569 1569 1569 1569 1570 1571 1572 1573 1573
1511 1511 1511 1512 1512 1513 1513 1514 1515 1517 1518 1520 1523 1526 1528 1531 1534 1536 1539 1542 1544 1546 1548 1550 1553 1555 1556 1558 1560 1561 1563 1565 1568 1569 1569 1569 1569 1570 1571 1571 1572 1573 1574
1513 1513 1514 1514 1515 1516 1517 1517 1518 1519 1520 1522 1525 1527 1530 1533 1536 1538 1541 1543 1545 1548 1550 1552 1554 1556 1558 1560 1561 1563 1564 1567 1568 1569 1570 1569 1569 1570 1571 1571 1572 1573 1573
1515 1515 1515 1516 1517 1518 1519 1520 1521 1522 1523 1525 1527 1529 1532 1534 1537 1540 1542 1544 1546 1549 1551 1553 1555 1557 1559 1562 1563 1564 1566 1567 1569 1569 1569 1569 1569 1570 1570 1571 1572 1572 1573
1516 1517 1518 1518 1518 1519 1521 1522 1523 1524 1525 1527 1528 1530 1533 1536 1538 1541 1543 1545 1547 1549 1552 1554 1556 1559 1561 1562 1563 1565 1566 1568 1569 1570 1569 1568 1569 1569 1570 1570 1571 1571 1572
1518 1518 1519 1519 1519 1520 1522 1523 1525 1526 1527 1529 1530 1532 1534 1537 1539 1542 1543 1546 1548 1550 1552 1554 1556 1559 1560 1562 1563 1565 1566 1567 1568 1569 1568 1568 1568 1568 1569 1569 1570 1571 1571
1519 1519 1520 1520 1520 1521 1522 1524 1526 1527 1528 1530 1532 1534 1536 1538 1540 1542 1544 1546 1548 1550 1552 1554 1556 1558 1560 1562 1563 1565 1566 1567 1567 1568 1568 1567 1567 1568 1568 1568 1569 1570 1570
1519 1520 1520 1521 1521 1522 1524 1525 1525 1526 1528 1532 1533 1535 1537 1539 1540 1542 1544 1546 1549 1551 1552 1554 1556 1558 1560 1561 1563 1564 1565 1566 1566 1566 1567 1567 1566 1567 1567 1567 1568 1568 1569
1519 1520 1521 1522 1523 1524 1525 1526 1526 1527 1529 1532 1534 1535 1537 1539 1540 1543 1545 1547 1549 1551 1552 1554 1556 1558 1559 1561 1562 1563 1564 1565 1565 1565 1566 1566 1566 1565 1565 1566 1566 1567 1567
1519 1520 1521 1523 1523 1524 1525 1527 1528 1530 1531 1533 1535 1536 1537 1539 1541 1542 1544 1547 1549 1551 1552 1554 1556 1557 1559 1560 1561 1562 1563 1563 1563 1563 1564 1564 1565 1565 1564 1564 1564 1565 1565
1518 1519 1520 1522 1523 1525 1526 1527 1529 1530 1532 1534 1535 1537 1538 1539 1541 1543 1544 1546 1548 1550 1552 1554 1556 1557 1558 1559 1560 1561 1561 1562 1562 1562 1563 1563 1563 1563 1563 1562 1562 1563 1563
1516 1518 1520 1521 1523 1525 1526 1527 1529 1530 1532 1534 1535 1536 1538 1539 1541 1543 1544 1546 1548 1550 1552 1553 1554 1555 1556 1558 1559 1560 1560 1560 1560 1560 1561 1561 1561 1561 1562 1561 1561 1561 1561
1515 1516 1518 1520 1521 1523 1525 1527 1529 1531 1532 1534 1535 1536 1537 1539 1540 1542 1544 1545 1547 1549 1550 1552 1553 1554 1555 1556 1558 1558 1558 1558 1558 1559 1559 1560 1560 1560 1560 1559 1559 1559 1559
1512 1514 1516 1518 1520 1522 1524 1526 1528 1530 1532 1533 1534 1535 1537 1538 1540 1542 1543 1545 1546 1548 1549 1550 1551 1553 1554 1555 1556 1557 1557 1558 1557 1557 1557 1557 1558 1558 1558 1557 1557 1556 1557
1510 1512 1514 1516 1518 1520 1523 1525 1527 1528 1530 1532 1533 1534 1536 1537 1539 1541 1542 1544 1545 1546 1547 1548 1549 1551 1552 1553 1554 1555 1555 1554 1555 1555 1555 1555 1555 1555 1555 1555 1554 1554 1553
1507 1509 1511 1514 1516 1518 1521 1523 1525 1526 1528 1530 1532 1533 1534 1536 1537 1539 1540 1542 1543 1545 1545 1546 1548 1549 1550 1551 1552 1552 1553 1553 1553 1553 1553 1553 1553 1552 1552 1552 1552 1552 1551
1504 1507 1509 1511 1513 1516 1518 1520 1522 1525 1527 1528 1530 1531 1533 1534 1535 1537 1538 1540 1541 1542 1543 1544 1545 1546 1547 1548 1549 1550 1550 1551 1551 1551 1550 1551 1551 1550 1550 1549 1549 1549 1548
1502 1504 1506 1508 1510 1512 1515 1517 1519 1522 1524 1526 1527 1529 1530 1532 1533 1535 1536 1537 1538 1540 1541 1541 1542 1543 1544 1545 1546 1547 1547 1548 1548 1548 1548 1548 1548 1548 1547 1547 1546 1546 1545